INMARSAT 4-F2

Last updated on Tue Sep 16 2025 00:02:46 GMT+0000 (Coordinated Universal Time)

1 28899U 05044A 25258.32756250 -.00000275 00000+0 00000+0 0 9994 2 28899 4.7363 43.6320 0002600 161.4983 50.8454 1.00271074 72769
UTC large
Height (km)
Speed (km/s)
/
Latitude / Longitude
Inclination (degrees)
Orbital Period (minutes)
Azimuth
Elevation
Range (km)
Doppler Factor

Next 0 passes for location: London (51.5072 / 0.1276)

Sorry there are no passes over London.